Torna al catalogo

THORAD AGENA D DEB

AttivoSSO
NORAD 4756·DEBRIS·🇺🇸 United States

Lanciato Apr 8, 1970 da Vandenberg Space Force Base

Loading…

Prossimi Passaggi (prossime 24 ore)

TLE

AggiornatoSource: Space-Track

Epoca: Sep 14, 2026, 20:08 UTC

1 04756U 70025DE  26257.83928120  .00000028  00000-0  12018-3 0  9996
2 04756 100.2297 299.8100 0027014 324.0692  35.8623 13.49431765774204

Traccia THORAD AGENA D DEB in tempo reale con AllMySat

Download on the App Store